Weather observations for the past three days for
El Dorado Captain Jack Thomas Airport
Metric (Imperial)
Date Time (cdt) Wind (kph) Vis. (km) Weather Sky Cond. Temperature (ºC) Relative Humidity Wind Chill (°C) Heat Index (°C) Pressure Precipitation (cm)
Air Dwpt 6 hour altimeter (cm) sea level (mb) 1 hr 3 hr 6 hr
Max. Min.
31 20:15 SE 9 4.83 Fair with Haze CLR 32 13 31% 31 76.02 0.0
31 19:55 SE 9 8.05 Fair with Haze CLR 33 13 30% 32 76.02 0.0
31 19:35 S 11 16.09 Fair CLR 35 13 26% 34 76.02 0.0
31 19:15 S 13 16.09 Fair CLR 36 12 23% 35 76.02 0.0
31 18:35 S 17 16.09 Fair CLR 38 11 20% 37 76.02 0.0
31 18:15 S 17 16.09 Fair CLR 38 11 20% 37 76.02 0.0
31 17:55 S 19 G 26 16.09 Fair CLR 39 10 17% 37 76.02 0.0
31 17:35 S 22 G 31 16.09 Fair CLR 40 11 17% 39 76.02 0.0
31 17:15 S 24 G 31 16.09 Fair CLR 40 11 17% 39 76.02 0.0
31 16:55 S 26 G 35 16.09 Fair CLR 40 12 19% 39 76.02 0.0
31 16:35 S 28 G 37 16.09 Fair CLR 40 12 19% 39 76.05 0.0
31 16:15 SW 17 G 31 16.09 Fair CLR 40 12 19% 39 76.05 0.0
31 15:55 S 22 G 31 16.09 Fair CLR 40 11 17% 39 76.07 0.0
31 15:35 S 17 16.09 Fair CLR 40 12 19% 39 76.07 0.0
31 15:15 S 24 G 31 16.09 Fair CLR 40 12 19% 39 76.1 0.0
31 14:55 S 19 G 30 16.09 Fair CLR 40 12 19% 39 76.1 0.0
31 14:35 SW 17 G 37 16.09 Fair CLR 40 13 20% 39 76.1 0.0
31 14:15 S 20 G 33 16.09 Fair CLR 40 13 20% 39 76.12 0.0
31 13:55 S 17 G 30 16.09 Fair CLR 40 13 20% 39 76.12 0.0
31 13:35 SW 19 G 30 16.09 Fair CLR 39 14 23% 39 76.15 0.0
31 13:15 SW 30 G 39 16.09 Fair CLR 39 13 21% 38 76.17 0.0
31 12:55 SW 26 16.09 Fair CLR 38 14 24% 38 76.17 0.0
31 12:35 SW 22 G 37 16.09 Fair CLR 38 14 24% 38 76.2 0.0
31 12:15 S 24 16.09 Fair CLR 37 15 27% 37 76.2 0.0
31 11:55 SW 19 G 26 16.09 Fair CLR 37 15 27% 37 76.23 0.0
31 11:35 S 17 G 31 16.09 Fair CLR 36 16 30% 36 76.23 0.0
31 11:15 S 20 G 26 16.09 Fair CLR 36 16 30% 36 76.23 0.0
31 10:55 SW 20 16.09 Fair CLR 35 16 32% 35 76.25 0.0
31 10:35 SW 19 16.09 Fair CLR 34 16 34% 34 76.23 0.0
31 10:15 SW 20 G 33 16.09 Fair CLR 33 15 34% 33 76.25 0.0
31 09:55 SW 19 G 26 16.09 Fair CLR 32 15 36% 32 76.23 0.0
31 09:35 SW 24 16.09 Fair CLR 32 15 36% 32 76.23 0.0
31 09:15 S 20 G 26 16.09 Fair CLR 31 15 38% 31 76.23 0.0
31 08:55 S 17 16.09 Fair CLR 30 15 40% 30 76.25 0.0
31 08:35 S 13 16.09 Fair CLR 28 16 48% 28 76.25 0.0
31 08:15 S 17 16.09 Fair CLR 27 16 51% 27 76.23 0.0
31 07:55 S 13 16.09 Fair CLR 26 16 54% 27 76.2 0.0
31 07:35 S 13 16.09 Fair CLR 25 16 57% 26 76.2 0.0
31 07:15 S 13 16.09 Fair CLR 23 16 65% 76.2 0.0
31 06:55 S 11 16.09 Fair CLR 23 16 65% 76.17 0.0
31 06:35 S 7 16.09 Fair CLR 23 16 65% 76.17 0.0
31 06:15 S 7 16.09 Fair CLR 24 16 61% 25 76.17 0.0
31 05:55 S 11 16.09 Fair CLR 24 16 61% 25 76.15 0.0
31 05:35 S 11 16.09 Fair CLR 24 16 61% 25 76.12 0.0
31 05:15 S 11 16.09 Fair CLR 24 16 61% 25 76.12 0.0
31 04:55 S 11 16.09 Fair CLR 24 16 61% 25 76.1 0.0
31 04:35 S 9 16.09 Fair CLR 25 16 57% 26 76.1 0.0
31 04:15 S 11 16.09 Fair CLR 26 15 51% 27 76.07 0.0
31 03:55 S 11 16.09 Fair CLR 27 15 48% 27 76.05 0.0
31 03:35 S 15 16.09 Fair CLR 27 15 48% 27 76.02 0.0
31 03:15 S 15 16.09 Fair CLR 27 15 48% 27 76.02 0.0
31 02:55 S 13 16.09 Fair CLR 28 15 45% 28 76.05 0.0
31 02:35 S 15 16.09 Fair CLR 29 15 43% 29 76.05 0.0
31 02:15 S 15 16.09 Fair CLR 29 15 43% 29 76.07 0.0
31 01:55 S 17 16.09 Fair CLR 30 15 40% 30 76.07 0.0
31 01:35 S 22 G 28 16.09 Fair CLR 30 15 40% 30 76.05 0.0
31 01:15 S 20 16.09 Fair CLR 30 15 40% 30 76.02 0.0
31 00:55 S 26 G 35 16.09 Fair CLR 31 15 38% 31 76 0.0
31 00:35 S 24 G 33 16.09 Fair CLR 31 14 35% 30 75.97 0.0
31 00:15 S 24 G 31 16.09 Fair CLR 31 14 35% 30 75.95 0.0
30 23:55 S 24 16.09 Fair CLR 31 14 35% 30 75.95 0.0
30 23:35 S 24 16.09 Fair CLR 31 14 35% 30 75.95 0.0
30 23:15 S 24 G 31 16.09 Fair CLR 31 14 35% 30 75.95 0.0
30 22:55 S 20 16.09 Fair CLR 31 14 35% 30 75.97 0.0
30 22:35 S 20 16.09 Fair CLR 31 14 35% 30 75.97 0.0
30 22:15 S 17 16.09 Fair CLR 31 14 35% 30 75.95 0.0
30 21:55 S 17 16.09 Fair CLR 31 14 35% 30 75.95 0.0
30 21:35 S 15 16.09 Fair CLR 32 14 33% 31 75.92 0.0
30 21:15 S 19 16.09 Fair CLR 32 13 31% 31 75.92 0.0
30 20:55 S 20 16.09 Fair CLR 33 14 32% 32 75.9 0.0
30 20:35 S 13 16.09 Fair CLR 33 13 30% 32 75.87 0.0
30 20:15 S 17 16.09 Fair CLR 35 13 26% 34 75.84 0.0
30 19:55 S 19 16.09 Fair CLR 35 13 26% 34 75.84 0.0
30 19:35 S 22 16.09 Fair CLR 36 13 25% 35 75.84 0.0
30 19:15 S 24 G 35 16.09 Fair CLR 37 13 24% 36 75.84 0.0
30 18:55 S 30 16.09 Fair CLR 38 13 22% 37 75.84 0.0
30 18:35 S 28 G 37 16.09 Fair CLR 39 13 21% 38 75.84 0.0
30 18:15 S 31 16.09 Fair CLR 40 13 20% 39 75.84 0.0
30 17:55 S 26 G 44 16.09 Fair CLR 40 14 21% 40 75.82 0.0
30 17:35 S 30 G 41 16.09 Fair CLR 40 14 21% 40 75.79 0.0
30 17:15 S 30 G 41 16.09 Fair CLR 41 14 20% 41 75.79 0.0
30 16:55 S 33 G 41 16.09 Fair and Breezy CLR 41 13 19% 40 75.82 0.0
30 16:35 S 33 G 39 16.09 Fair and Breezy CLR 41 13 19% 40 75.82 0.0
30 16:15 S 31 16.09 Fair CLR 41 13 19% 40 75.82 0.0
30 15:55 S 37 G 43 16.09 Fair and Breezy CLR 41 14 20% 41 75.84 0.0
30 15:35 S 31 G 43 16.09 Fair CLR 41 14 20% 41 75.84 0.0
30 15:15 S 30 G 43 16.09 Fair CLR 41 14 20% 41 75.87 0.0
30 14:55 S 35 G 48 16.09 Fair and Breezy CLR 41 14 20% 41 75.9 0.0
30 14:35 S 28 G 37 16.09 Fair CLR 40 15 23% 40 75.92 0.0
30 14:15 SW 31 G 46 16.09 Fair CLR 40 15 23% 40 75.92 0.0
30 13:55 SW 35 G 50 16.09 Fair and Breezy CLR 40 16 24% 41 75.92 0.0
30 13:35 SW 31 G 41 16.09 Fair CLR 40 16 24% 41 75.95 0.0
30 13:15 SW 39 G 50 16.09 Fair and Breezy CLR 38 16 27% 39 75.95 0.0
30 12:55 S 39 G 46 16.09 Fair and Breezy CLR 38 16 27% 39 75.97 0.0
30 12:35 S 39 G 50 16.09 Fair and Breezy CLR 37 16 29% 37 76 0.0
30 12:15 S 35 G 46 16.09 Fair and Breezy CLR 37 16 29% 37 76.02 0.0
30 11:55 SW 30 G 44 16.09 Fair CLR 37 16 29% 37 76.02 0.0
30 11:35 S 33 G 46 16.09 Fair and Breezy CLR 36 16 30% 36 76.02 0.0
30 11:15 S 30 G 43 16.09 Fair CLR 36 16 30% 36 76.02 0.0
30 10:55 S 30 G 41 16.09 Fair CLR 35 16 32% 35 76.05 0.0
30 10:35 S 31 G 41 16.09 Fair CLR 33 16 36% 33 76.05 0.0
30 10:15 S 31 16.09 Fair CLR 33 16 36% 33 76.05 0.0
30 09:55 SW 28 G 35 16.09 Fair CLR 32 16 38% 32 76.05 0.0
30 09:35 S 33 G 41 16.09 Fair and Breezy CLR 31 16 40% 31 76.05 0.0
30 09:15 S 28 16.09 Fair CLR 31 16 40% 31 76.07 0.0
30 08:55 S 24 G 35 16.09 Fair CLR 30 16 43% 30 76.07 0.0
30 08:35 S 26 G 35 16.09 Fair CLR 28 16 48% 28 76.07 0.0
30 08:15 S 24 16.09 Fair CLR 27 16 51% 27 76.1 0.0
30 07:55 S 26 G 33 16.09 Fair CLR 26 15 51% 27 76.07 0.0
30 07:35 S 26 16.09 Fair CLR 26 15 51% 27 76.07 0.0
30 07:15 S 22 16.09 Fair CLR 26 15 51% 27 76.07 0.0
30 06:55 S 19 16.09 Fair CLR 25 15 54% 26 76.1 0.0
30 06:35 S 19 16.09 Fair CLR 26 15 51% 27 76.07 0.0
30 06:15 S 20 16.09 Fair CLR 25 15 54% 26 76.07 0.0
30 05:55 S 19 16.09 Fair CLR 26 15 51% 27 76.07 0.0
30 05:35 S 20 16.09 Fair CLR 26 15 51% 27 76.05 0.0
30 05:15 S 19 16.09 Fair CLR 26 15 51% 27 76.07 0.0
30 04:55 S 19 16.09 Fair CLR 26 15 51% 27 76.07 0.0
30 04:35 S 20 G 30 16.09 Fair CLR 27 15 48% 27 76.05 0.0
30 04:15 S 19 16.09 Fair CLR 27 15 48% 27 76.05 0.0
30 03:55 S 19 16.09 Fair CLR 27 15 48% 27 76.05 0.0
30 03:35 S 20 16.09 Fair CLR 27 15 48% 27 76.02 0.0
30 03:15 S 19 16.09 Fair CLR 27 15 48% 27 76.02 0.0
30 02:55 S 19 16.09 Fair CLR 28 15 45% 28 76.02 0.0
30 02:35 S 20 16.09 Fair CLR 28 15 45% 28 76.02 0.0
30 02:15 S 22 G 28 16.09 Fair CLR 28 15 45% 28 76 0.0
30 01:55 S 20 16.09 Fair CLR 29 15 43% 29 76.02 0.0
30 01:35 S 19 G 30 16.09 Fair CLR 29 15 43% 29 76.02 0.0
30 00:55 S 22 16.09 Fair CLR 30 15 40% 30 76.05 0.0
30 00:35 S 19 G 30 16.09 Fair CLR 30 15 40% 30 76.05 0.0
30 00:15 S 20 16.09 Fair CLR 30 15 40% 30 76.02 0.0
29 23:55 S 20 16.09 Fair CLR 30 15 40% 30 76.02 0.0
29 23:35 S 22 16.09 Fair CLR 30 15 40% 30 76.05 0.0
29 23:15 S 20 G 33 16.09 Fair CLR 31 15 38% 31 76.05 0.0
29 22:55 S 24 G 37 16.09 Fair CLR 31 15 38% 31 76.05 0.0
29 22:35 S 24 16.09 Fair CLR 31 15 38% 31 76.02 0.0
29 22:15 S 22 16.09 Fair CLR 31 15 38% 31 76.02 0.0
29 21:55 S 22 16.09 Fair CLR 31 15 38% 31 76.02 0.0
29 21:35 S 20 16.09 Fair CLR 31 14 35% 30 76 0.0
29 21:15 S 22 16.09 Fair CLR 32 13 31% 31 76 0.0
29 20:55 S 19 16.09 Fair CLR 32 13 31% 31 75.97 0.0
29 20:35 S 17 16.09 Fair CLR 32 12 29% 31 75.95 0.0
29 20:15 S 19 16.09 Fair CLR 33 13 30% 32 75.92 0.0
29 19:55 S 19 16.09 Fair CLR 34 12 26% 33 75.92 0.0
29 19:35 S 19 16.09 Fair CLR 35 12 25% 34 75.92 0.0
29 19:15 S 22 16.09 Fair CLR 36 12 23% 35 75.92 0.0
29 18:55 S 22 G 28 16.09 Fair CLR 36 13 25% 35 75.92 0.0
29 18:35 S 26 16.09 Fair CLR 37 13 24% 36 75.92 0.0
29 18:15 S 31 G 41 16.09 Fair CLR 37 13 24% 36 75.92 0.0
29 17:55 S 26 G 37 16.09 Fair CLR 38 13 22% 37 75.92 0.0
29 17:35 S 30 G 39 16.09 Fair CLR 38 13 22% 37 75.95 0.0
29 17:15 S 31 G 39 16.09 Fair CLR 39 13 21% 38 75.95 0.0
29 16:55 S 31 G 41 16.09 Fair CLR 39 12 20% 38 75.95 0.0
29 16:35 SW 26 G 35 16.09 Fair CLR 40 12 19% 39 75.97 0.0
29 16:15 S 26 G 43 16.09 Fair CLR 40 14 21% 40 76 0.0
29 15:55 S 35 G 44 16.09 Fair and Breezy CLR 40 14 21% 40 76.02 0.0
29 15:35 S 28 G 44 16.09 Fair CLR 39 14 23% 39 76.02 0.0
29 15:15 SW 28 G 39 16.09 Fair CLR 38 14 24% 38 76.05 0.0
29 14:55 S 33 G 39 16.09 Fair and Breezy CLR 39 15 24% 39 76.07 0.0
29 14:35 S 31 G 43 16.09 Fair CLR 38 13 22% 37 76.1 0.0
29 14:15 S 30 G 39 16.09 Fair CLR 38 14 24% 38 76.12 0.0
29 13:55 S 24 G 37 16.09 Fair CLR 38 14 24% 38 76.15 0.0
29 13:35 SW 28 G 35 16.09 Fair CLR 38 13 22% 37 76.15 0.0
29 13:15 S 31 G 39 16.09 Fair CLR 37 15 27% 37 76.17 0.0
29 12:55 S 30 G 41 16.09 Fair CLR 37 15 27% 37 76.2 0.0
29 12:35 S 28 G 37 16.09 Fair CLR 36 15 28% 36 76.23 0.0
29 11:15 S 28 16.09 Fair CLR 32 15 36% 32 76.28 0.0
29 10:55 S 19 16.09 Fair CLR 32 15 36% 32 76.3 0.0
29 10:35 S 22 16.09 Fair CLR 32 15 36% 32 76.3 0.0
29 10:15 S 26 16.09 Fair CLR 31 15 38% 31 76.3 0.0
29 09:55 S 24 G 31 16.09 Fair CLR 28 15 45% 28 76.3 0.0
29 09:35 S 28 G 33 16.09 Fair CLR 28 15 45% 28 76.3 0.0
29 09:15 S 24 G 33 16.09 Fair CLR 27 15 48% 27 76.33 0.0
29 08:55 S 28 G 35 16.09 Fair CLR 27 15 48% 27 76.33 0.0
29 08:35 S 30 G 39 16.09 Fair CLR 27 14 45% 27 76.33 0.0
29 08:15 S 22 G 35 16.09 Fair CLR 27 14 45% 27 76.33 0.0
29 07:55 S 22 16.09 Fair CLR 26 13 45% 26 76.3 0.0
29 07:35 S 22 16.09 Fair CLR 25 13 47% 26 76.33 0.0
29 07:15 S 17 16.09 Fair CLR 24 12 47% 25 76.3 0.0
29 06:55 S 15 16.09 Fair CLR 23 12 50% 76.3 0.0
29 06:35 S 13 16.09 Fair CLR 23 13 53% 76.3 0.0
29 06:15 S 13 16.09 Fair CLR 23 13 53% 76.3 0.0
29 05:55 S 13 16.09 Fair CLR 23 13 53% 76.3 0.0
29 05:35 S 15 16.09 Fair CLR 23 12 50% 76.33 0.0
29 05:15 S 15 16.09 Fair CLR 23 12 50% 76.3 0.0
29 04:55 S 13 16.09 Fair CLR 23 12 50% 76.3 0.0
29 04:35 S 13 16.09 Fair CLR 23 12 50% 76.3 0.0
29 04:15 S 13 16.09 Fair CLR 24 12 47% 25 76.3 0.0
29 03:55 S 17 16.09 Fair CLR 24 12 47% 25 76.3 0.0
29 03:35 S 13 16.09 Fair CLR 24 12 47% 25 76.3 0.0
29 03:15 SE 15 16.09 Fair CLR 25 12 44% 26 76.3 0.0
29 02:55 SE 17 16.09 Fair CLR 25 12 44% 26 76.3 0.0
29 02:35 SE 15 16.09 Fair CLR 25 12 44% 26 76.3 0.0
29 02:15 SE 17 16.09 Fair CLR 25 12 44% 26 76.3 0.0
29 01:55 SE 15 16.09 Fair CLR 25 12 44% 26 76.33 0.0
29 01:35 SE 15 16.09 Fair CLR 25 12 44% 26 76.33 0.0
29 01:15 SE 17 16.09 Fair CLR 25 12 44% 26 76.33 0.0
29 00:55 SE 15 16.09 Fair CLR 25 12 44% 26 76.33 0.0
29 00:35 SE 15 16.09 Fair CLR 25 11 42% 26 76.33 0.0
29 00:15 SE 15 16.09 Fair CLR 25 11 42% 26 76.33 0.0
28 23:55 SE 19 16.09 Fair CLR 26 11 39% 26 76.33 0.0
28 23:35 SE 17 16.09 Fair CLR 26 11 39% 26 76.33 0.0
28 23:15 SE 13 16.09 Fair CLR 26 11 39% 26 76.33 0.0
28 22:55 SE 13 16.09 Fair CLR 26 11 39% 26 76.35 0.0
28 22:35 SE 9 16.09 Fair CLR 26 11 39% 26 76.35 0.0
28 22:15 SE 11 16.09 Fair CLR 26 11 39% 26 76.35 0.0
28 21:55 SE 9 16.09 Fair CLR 26 12 42% 26 76.33 0.0
28 21:35 SE 9 16.09 Fair CLR 26 12 42% 26 76.33 0.0
28 21:15 SE 9 16.09 Fair CLR 27 12 39% 27 76.3 0.0
28 20:55 SE 9 16.09 Fair CLR 27 12 39% 27 76.28 0.0
28 20:35 SE 9 16.09 Fair CLR 29 12 35% 28 76.28 0.0
Date Time (cdt) Wind (kph) Vis. (km) Weather Sky Cond. Air Dwpt Max. Min. Relative Humidity Wind Chill (°C) Heat Index (°C) altimeter (cm) sea level (mb) 1 hr 3 hr 6 hr
6 hour
Temperature (ºC) Pressure Precipitation (cm)